Terug naar catalogus

COSMOS 1375 DEB

ActiefLEO
NORAD 16386·DEBRIS·🇷🇺 Russia

Gelanceerd Jun 6, 1982 vanaf Plesetsk Cosmodrome

Loading…

Volgende Passages (komende 24 uur)

TLE

VersSource: Space-Track

Epoch: Sep 14, 2026, 06:36 UTC

1 16386U 82055AA  26257.27554697 -.00000041  00000-0  43673-4 0  9994
2 16386  65.8364 161.9449 0051943 298.2419 146.4003 13.69761239214461

Volg COSMOS 1375 DEB in realtime met AllMySat

Download on the App Store